Weather History for KOCF - October, 2011

Change the Weather History Date:

Friday, October 21, 2011

  Actual Average Record
Temperature  
Mean Temperature 56 °F -  
Max Temperature 69 °F 79 °F 89 °F (2006)
Min Temperature 44 °F 58 °F 41 °F (1996)
Degree Days  
Heating Degree Days 8    
Growing Degree Days 6 (Base 50)    
Moisture  
Dew Point 42 °F    
Average Humidity 72    
Maximum Humidity 93    
Minimum Humidity 33    
Precipitation  
Precipitation 0.00 in - - ()
Sea Level Pressure  
Sea Level Pressure 30.11 in    
Wind  
Wind Speed 2 mph (North)    
Max Wind Speed 9 mph    
Max Gust Speed -    
Visibility 10 miles    
Events      
Averages and records for this station are not official NWS values.
T = Trace of Precipitation, MM = Missing Value Source: NWS Daily Summary

Daily Weather History Graph

Daily Weather History Graph

Search for Another Location

Airport or City:

Trip Planner

Search our weather history database for the weather conditions in past years. The results will help you decide how hot, cold, wet, or windy it might be!

Date:

Astronomy

Oct. 21, 2011 Rise Set
Actual Time 7:33 AM EDT 6:52 PM EDT
Civil Twilight 7:09 AM EDT 7:16 PM EDT
Nautical Twilight 6:41 AM EDT 7:44 PM EDT
Astronomical Twilight 6:14 AM EDT 8:12 PM EDT
Moon 1:50 AM EDT (10/21) 3:11 PM EDT (10/21)
Length of Visible Light 12h 07m
Length of Day
11h 19m
Waning Crescent, 34% of the Moon is Illuminated
Oct 21
Waning Crescent
Oct 26
New
Nov 2
First Quarter
Nov 10
Full
Nov 18
Last Quarter

Hourly Weather History & Observations

Time (EDT) Temp. Windchill Dew Point Humidity Pressure Visibility Wind Dir Wind Speed Gust Speed Precip Events Conditions
12:15 AM 46.4 °F - 41.0 °F 81% 30.10 in 10.0 mi Calm Calm - N/A   Clear
12:35 AM 44.6 °F - 41.0 °F 87% 30.10 in 10.0 mi Calm Calm - N/A   Clear
12:55 AM 44.6 °F - 41.0 °F 87% 30.10 in 10.0 mi Calm Calm - N/A   Clear
1:15 AM 44.6 °F - 41.0 °F 87% 30.10 in 10.0 mi Calm Calm - N/A   Clear
1:35 AM 44.6 °F - 41.0 °F 87% 30.10 in 10.0 mi Calm Calm - N/A   Clear
2:15 AM 44.6 °F - 41.0 °F 87% 30.11 in 10.0 mi Calm Calm - N/A   Mostly Cloudy
2:35 AM 46.4 °F - 42.8 °F 87% 30.11 in 10.0 mi Calm Calm - N/A   Mostly Cloudy
2:55 AM 46.4 °F - 42.8 °F 87% 30.11 in 10.0 mi Calm Calm - N/A   Mostly Cloudy
3:15 AM 46.4 °F - 42.8 °F 87% 30.11 in 10.0 mi Calm Calm - N/A   Overcast
3:35 AM 44.6 °F 43.1 °F 41.0 °F 87% 30.10 in 10.0 mi NE 3.5 mph - N/A   Mostly Cloudy
3:55 AM 44.6 °F - 42.8 °F 93% 30.11 in 10.0 mi Calm Calm - N/A   Overcast
4:15 AM 46.4 °F - 42.8 °F 87% 30.11 in 10.0 mi Calm Calm - N/A   Mostly Cloudy
4:35 AM 46.4 °F - 42.8 °F 87% 30.11 in 10.0 mi Calm Calm - N/A   Overcast
4:55 AM 46.4 °F 45.2 °F 42.8 °F 87% 30.11 in 10.0 mi North 3.5 mph - N/A   Mostly Cloudy
5:15 AM 44.6 °F 42.2 °F 41.0 °F 87% 30.12 in 10.0 mi North 4.6 mph - N/A   Clear
5:35 AM 44.6 °F - 42.8 °F 93% 30.13 in 10.0 mi Calm Calm - N/A   Clear
5:55 AM 44.6 °F - 39.2 °F 81% 30.13 in 10.0 mi Calm Calm - N/A   Clear
6:15 AM 44.6 °F - 39.2 °F 81% 30.14 in 10.0 mi Calm Calm - N/A   Clear
6:35 AM 44.6 °F - 39.2 °F 81% 30.14 in 10.0 mi Calm Calm - N/A   Clear
6:50 AM 44.6 °F - 39.2 °F 81% 30.15 in 10.0 mi Calm Calm - N/A   Clear
8:50 AM 48.2 °F - 42.8 °F 82% 30.17 in 10.0 mi North 4.6 mph - N/A   Clear
9:50 AM 57.2 °F - 42.8 °F 59% 30.17 in 10.0 mi North 8.1 mph - N/A   Clear
10:50 AM 62.6 °F - 41.0 °F 45% 30.18 in 10.0 mi NNE 8.1 mph - N/A   Clear
11:50 AM 64.4 °F - 39.2 °F 40% 30.17 in 10.0 mi NE 9.2 mph - N/A   Clear
12:50 PM 66.2 °F - 39.2 °F 37% 30.14 in 10.0 mi North 5.8 mph - N/A   Clear
1:50 PM 68.0 °F - 41.0 °F 37% 30.11 in 10.0 mi ENE 8.1 mph - N/A   Clear
2:50 PM 69.8 °F - 41.0 °F 35% 30.09 in 10.0 mi NNW 9.2 mph - N/A   Clear
3:50 PM 69.8 °F - 41.0 °F 35% 30.07 in 10.0 mi North 5.8 mph - N/A   Clear
4:50 PM 69.8 °F - 39.2 °F 33% 30.06 in 10.0 mi WNW 6.9 mph - N/A   Clear
5:50 PM 69.8 °F - 39.2 °F 33% 30.07 in 10.0 mi NNW 9.2 mph - N/A   Clear
6:50 PM 62.6 °F - 44.6 °F 52% 30.08 in 10.0 mi Calm Calm - N/A   Clear
7:55 PM 59.0 °F - 42.8 °F 55% 30.09 in 10.0 mi North 3.5 mph - N/A   Clear
8:15 PM 57.2 °F - 42.8 °F 59% 30.09 in 10.0 mi Calm Calm - N/A   Clear
8:35 PM 55.4 °F - 42.8 °F 63% 30.09 in 10.0 mi Calm Calm - N/A   Clear
8:55 PM 53.6 °F - 44.6 °F 72% 30.10 in 10.0 mi Calm Calm - N/A   Clear
9:15 PM 51.8 °F - 42.8 °F 71% 30.11 in 10.0 mi SSW 3.5 mph - N/A   Clear
9:35 PM 51.8 °F - 42.8 °F 71% 30.11 in 10.0 mi Calm Calm - N/A   Clear
9:55 PM 51.8 °F - 42.8 °F 71% 30.11 in 10.0 mi Calm Calm - N/A   Clear
10:15 PM 50.0 °F - 42.8 °F 76% 30.12 in 10.0 mi Calm Calm - N/A   Clear
10:55 PM 48.2 °F - 42.8 °F 82% 30.12 in 10.0 mi Calm Calm - N/A   Clear
11:15 PM 48.2 °F - 42.8 °F 82% 30.12 in 10.0 mi Calm Calm - N/A   Clear
11:35 PM 48.2 °F - 42.8 °F 82% 30.11 in 10.0 mi Calm Calm - N/A   Clear
11:55 PM 46.4 °F - 42.8 °F 87% 30.11 in 10.0 mi Calm Calm - N/A   Clear